SCP
0 0 0 0 0 0 0 0 0 0 0 0 0 0 0 0 0 0 0 0 0 0
0 0 0 0 0 0 0 0 0 0 0 0 0 0 0 0 0 0 0 0 0 0
0 0 0 0 0 0 0 0 0 0 0 0 0 0 0 0 0 0 0 0 0 0
0 0 0 0 0 0 0 0 0 0 0 0 0 0 0 0 0 0 0 0 0 0
0 0 0 0 0 0 0 0 0 0 0 0 0 0 0 0 0 0 0 0 0 0
0 0 0 0 0 0 0 0 0 0 0 0 0 0 0 0 0 0 0 0 0 0
0 0 0 0 0 0 0 0 0 0 0 0 0 0 0 0 0 0 0 0 0 0
0 -0 0 0 0 0 0 0 0 0 0 0 0 0 0 0 0 0 0 0 0 0
0 0 -0 0 0 0 0 0 0 0 0 0 0 0 0 0 0 0 0 0 0 0
0 0 0 0 0 0 0 0 0 0 0 0 0 0 0 0 0 0 0 0 0 0
0 0 0 0 0 0 0 0 0 0 0 0 0 0 0 0 0 0 0 0 0 0
0 0 0 0 0 0 0 0 0 0 0 0 0 0 0 0 0 0 0 0 0 0
0 0 0 0 0 0 0 0 0 0 0 0 0 0 0 0 0 0 0 0 0 0
0 0 0 0 0 0 0 0 0 0 0 0 0 0 0 0 0 0 0 0 0 0
Wind_Speed_500mb
78 88 97 102 105 107 106 103 98 98 91 91 90 94 98 102 100 100 99 100 101 101
64 73 82 89 96 103 105 106 106 101 100 95 93 92 94 95 94 101 101 102 104 102
41 57 68 76 86 90 95 99 99 100 98 94 91 93 93 90 85 92 97 100 103 100
32 37 44 60 75 82 86 91 94 94 97 90 87 89 95 94 85 89 93 94 96 97
39 42 47 53 56 62 75 80 86 87 91 93 89 91 90 96 88 84 94 92 94 96
43 46 49 50 51 56 63 68 74 83 86 90 91 88 87 90 90 85 86 87 91 95
49 50 52 57 57 55 54 60 70 75 84 84 87 89 94 84 82 83 85 77 83 90
57 58 55 59 61 61 58 59 59 69 74 81 86 87 89 86 78 80 82 85 95 89
62 59 62 60 66 68 67 64 65 66 65 74 82 86 85 88 85 84 91 86 98 91
55 63 62 63 67 68 72 71 66 67 68 70 78 83 83 86 95 85 82 81 83 95
58 59 64 65 70 72 67 69 72 63 65 72 77 76 78 78 82 92 85 76 85 93
59 63 64 66 67 73 77 70 69 71 67 68 76 73 74 78 73 83 87 83 81 80
58 63 65 66 68 73 75 79 73 72 72 74 76 72 72 65 72 81 87 85 81 86
56 59 63 68 67 71 74 76 78 74 72 71 74 71 70 66 71 83 86 87 88 95
Wind_Direction_500mb
270 268 269 270 272 273 273 275 277 278 277 271 268 265 261 260 262 263 263 260 259 258
278 277 277 278 278 277 278 278 278 280 279 278 277 272 267 263 265 266 266 266 262 261
282 281 280 280 279 279 279 279 279 279 279 279 279 277 271 265 267 267 267 267 265 265
310 304 293 282 279 279 280 279 278 279 278 278 277 274 273 270 266 265 269 266 264 263
307 303 303 306 299 282 276 278 278 278 279 278 277 276 275 274 271 271 267 266 265 262
317 309 303 301 304 307 290 274 274 277 277 277 276 276 275 274 273 270 270 269 266 263
339 328 316 306 301 301 301 294 277 271 273 275 277 275 272 271 272 276 272 271 270 266
347 338 328 318 306 298 294 292 290 284 275 271 270 271 271 266 267 269 272 277 265 265
325 329 334 330 318 306 298 292 288 285 281 279 270 268 268 265 261 268 269 266 267 268
328 323 326 327 329 318 304 296 292 288 285 277 275 269 268 267 265 266 260 264 267 267
331 331 329 327 325 327 315 303 297 294 287 282 274 273 267 264 268 268 264 265 266 268
333 332 333 329 326 326 325 318 307 299 291 281 276 270 267 267 264 264 263 261 268 268
330 328 330 331 329 328 326 325 315 304 296 287 276 269 263 261 261 260 259 259 259 265
334 331 329 326 331 329 329 323 322 314 304 291 280 271 266 253 256 255 258 253 258 254
Wind_Speed_850mb
78 88 97 102 105 107 106 103 98 98 91 91 90 94 98 102 100 100 99 100 101 101
64 73 82 89 96 103 105 106 106 101 100 95 93 92 94 95 94 101 101 102 104 102
41 57 68 76 86 90 95 99 99 100 98 94 91 93 93 90 85 92 97 100 103 100
32 37 44 60 75 82 86 91 94 94 97 90 87 89 95 94 85 89 93 94 96 97
39 42 47 53 56 62 75 80 86 87 91 93 89 91 90 96 88 84 94 92 94 96
43 46 49 50 51 56 63 68 74 83 86 90 91 88 87 90 90 85 86 87 91 95
49 50 52 57 57 55 54 60 70 75 84 84 87 89 94 84 82 83 85 77 83 90
57 58 55 59 61 61 58 59 59 69 74 81 86 87 89 86 78 80 82 85 95 89
62 59 62 60 66 68 67 64 65 66 65 74 82 86 85 88 85 84 91 86 98 91
55 63 62 63 67 68 72 71 66 67 68 70 78 83 83 86 95 85 82 81 83 95
58 59 64 65 70 72 67 69 72 63 65 72 77 76 78 78 82 92 85 76 85 93
59 63 64 66 67 73 77 70 69 71 67 68 76 73 74 78 73 83 87 83 81 80
58 63 65 66 68 73 75 79 73 72 72 74 76 72 72 65 72 81 87 85 81 86
56 59 63 68 67 71 74 76 78 74 72 71 74 71 70 66 71 83 86 87 88 95
Wind_Direction_850mb
270 268 269 270 272 273 273 275 277 278 277 271 268 265 261 260 262 263 263 260 259 258
278 277 277 278 278 277 278 278 278 280 279 278 277 272 267 263 265 266 266 266 262 261
282 281 280 280 279 279 279 279 279 279 279 279 279 277 271 265 267 267 267 267 265 265
310 304 293 282 279 279 280 279 278 279 278 278 277 274 273 270 266 265 269 266 264 263
307 303 303 306 299 282 276 278 278 278 279 278 277 276 275 274 271 271 267 266 265 262
317 309 303 301 304 307 290 274 274 277 277 277 276 276 275 274 273 270 270 269 266 263
339 328 316 306 301 301 301 294 277 271 273 275 277 275 272 271 272 276 272 271 270 266
347 338 328 318 306 298 294 292 290 284 275 271 270 271 271 266 267 269 272 277 265 265
325 329 334 330 318 306 298 292 288 285 281 279 270 268 268 265 261 268 269 266 267 268
328 323 326 327 329 318 304 296 292 288 285 277 275 269 268 267 265 266 260 264 267 267
331 331 329 327 325 327 315 303 297 294 287 282 274 273 267 264 268 268 264 265 266 268
333 332 333 329 326 326 325 318 307 299 291 281 276 270 267 267 264 264 263 261 268 268
330 328 330 331 329 328 326 325 315 304 296 287 276 269 263 261 261 260 259 259 259 265
334 331 329 326 331 329 329 323 322 314 304 291 280 271 266 253 256 255 258 253 258 254